Time,TemperatureF,DewpointF,PressureIn,WindDirection,WindDirectionDegrees,WindSpeedMPH,WindSpeedGustMPH,Humidity,HourlyPrecipIn,Conditions,Clouds,dailyrainin,SolarRadiationWatts/m^2,SoftwareType,DateUTC
2013-01-17 00:02:00,9.0,6.0,-100.00,West,276,0.0,0.0,85,0.00,,,0.00,0.700000,,2013-01-17 09:02:00,
2013-01-17 00:12:00,9.0,6.0,-100.00,West,276,0.0,0.0,85,0.00,,,0.00,0.700000,,2013-01-17 09:12:00,
2013-01-17 00:22:00,9.0,6.0,-100.00,West,276,0.0,0.0,85,0.00,,,0.00,0.700000,,2013-01-17 09:22:00,
2013-01-17 00:32:00,9.0,6.0,-100.00,West,276,0.0,0.0,85,0.00,,,0.00,0.700000,,2013-01-17 09:32:00,
2013-01-17 00:42:00,9.0,6.0,-100.00,West,276,0.0,0.0,85,0.00,,,0.00,0.700000,,2013-01-17 09:42:00,
2013-01-17 01:02:00,9.0,5.0,-100.00,WNW,290,0.0,0.0,84,0.00,,,0.00,0.700000,,2013-01-17 10:02:00,
2013-01-17 01:12:00,9.0,5.0,-100.00,WNW,290,0.0,0.0,84,0.00,,,0.00,0.700000,,2013-01-17 10:12:00,
2013-01-17 01:22:00,9.0,5.0,-100.00,WNW,290,0.0,0.0,84,0.00,,,0.00,0.700000,,2013-01-17 10:22:00,
2013-01-17 01:32:00,9.0,5.0,-100.00,WNW,290,0.0,0.0,84,0.00,,,0.00,0.700000,,2013-01-17 10:32:00,
2013-01-17 01:42:00,9.0,5.0,-100.00,WNW,290,0.0,0.0,84,0.00,,,0.00,0.700000,,2013-01-17 10:42:00,
2013-01-17 02:02:00,9.0,5.0,-100.00,WNW,292,0.0,0.0,84,0.00,,,-99.99,0.700000,,2013-01-17 11:02:00,
2013-01-17 02:12:00,9.0,5.0,-100.00,WNW,292,0.0,0.0,84,0.00,,,-99.99,0.700000,,2013-01-17 11:12:00,
2013-01-17 02:22:00,9.0,5.0,-100.00,WNW,292,0.0,0.0,84,0.00,,,-99.99,0.700000,,2013-01-17 11:22:00,
2013-01-17 02:32:00,9.0,5.0,-100.00,WNW,292,0.0,0.0,84,0.00,,,-99.99,0.700000,,2013-01-17 11:32:00,
2013-01-17 02:42:00,9.0,5.0,-100.00,WNW,292,0.0,0.0,84,0.00,,,-99.99,0.700000,,2013-01-17 11:42:00,
2013-01-17 03:02:00,7.0,3.0,-100.00,WNW,300,0.0,0.0,83,0.00,,,0.00,0.600000,,2013-01-17 12:02:00,
2013-01-17 03:12:00,7.0,3.0,-100.00,WNW,300,0.0,0.0,83,0.00,,,0.00,0.600000,,2013-01-17 12:12:00,
2013-01-17 03:22:00,7.0,3.0,-100.00,WNW,300,0.0,0.0,83,0.00,,,0.00,0.600000,,2013-01-17 12:22:00,
2013-01-17 03:32:00,7.0,3.0,-100.00,WNW,300,0.0,0.0,83,0.00,,,0.00,0.600000,,2013-01-17 12:32:00,
2013-01-17 03:42:00,7.0,3.0,-100.00,WNW,300,0.0,0.0,83,0.00,,,0.00,0.600000,,2013-01-17 12:42:00,
2013-01-17 04:03:00,7.0,3.0,-100.00,NW,304,0.0,0.0,83,0.00,,,0.00,0.700000,,2013-01-17 13:03:00,
2013-01-17 04:12:00,7.0,3.0,-100.00,NW,304,0.0,0.0,83,0.00,,,0.00,0.700000,,2013-01-17 13:12:00,
2013-01-17 04:22:00,7.0,3.0,-100.00,NW,304,0.0,0.0,83,0.00,,,0.00,0.700000,,2013-01-17 13:22:00,
2013-01-17 04:33:00,7.0,3.0,-100.00,NW,304,0.0,0.0,83,0.00,,,0.00,0.700000,,2013-01-17 13:33:00,
2013-01-17 04:42:00,7.0,3.0,-100.00,NW,304,0.0,0.0,83,0.00,,,0.00,0.700000,,2013-01-17 13:42:00,
2013-01-17 05:03:00,6.0,2.0,-100.00,WNW,301,0.0,0.0,83,0.00,,,0.00,0.700000,,2013-01-17 14:03:00,
2013-01-17 05:12:00,6.0,2.0,-100.00,WNW,301,0.0,0.0,83,0.00,,,0.00,0.700000,,2013-01-17 14:12:00,
2013-01-17 05:23:00,6.0,2.0,-100.00,WNW,301,0.0,0.0,83,0.00,,,0.00,0.700000,,2013-01-17 14:23:00,
2013-01-17 05:32:00,6.0,2.0,-100.00,WNW,301,0.0,0.0,83,0.00,,,0.00,0.700000,,2013-01-17 14:32:00,
2013-01-17 05:42:00,6.0,2.0,-100.00,WNW,301,0.0,0.0,83,0.00,,,0.00,0.700000,,2013-01-17 14:42:00,
2013-01-17 06:03:00,6.0,2.0,-100.00,NW,308,0.0,0.0,82,0.00,,,0.00,0.700000,,2013-01-17 15:03:00,
2013-01-17 06:12:00,6.0,2.0,-100.00,NW,308,0.0,0.0,82,0.00,,,0.00,0.700000,,2013-01-17 15:12:00,
2013-01-17 06:22:00,6.0,2.0,-100.00,NW,308,0.0,0.0,82,0.00,,,0.00,0.700000,,2013-01-17 15:22:00,
2013-01-17 06:33:00,6.0,2.0,-100.00,NW,308,0.0,0.0,82,0.00,,,0.00,0.700000,,2013-01-17 15:33:00,
2013-01-17 06:42:00,6.0,2.0,-100.00,NW,308,0.0,0.0,82,0.00,,,0.00,0.700000,,2013-01-17 15:42:00,
2013-01-17 07:02:00,6.0,2.0,-100.00,NW,321,0.0,0.0,82,0.00,,,0.00,0.700000,,2013-01-17 16:02:00,
2013-01-17 07:12:00,6.0,2.0,-100.00,NW,321,0.0,0.0,82,0.00,,,0.00,0.700000,,2013-01-17 16:12:00,
2013-01-17 07:22:00,6.0,2.0,-100.00,NW,321,0.0,0.0,82,0.00,,,0.00,0.700000,,2013-01-17 16:22:00,
2013-01-17 07:33:00,6.0,2.0,-100.00,NW,321,0.0,0.0,82,0.00,,,0.00,0.700000,,2013-01-17 16:33:00,
2013-01-17 07:42:00,6.0,2.0,-100.00,NW,321,0.0,0.0,82,0.00,,,0.00,0.700000,,2013-01-17 16:42:00,
2013-01-17 08:02:00,5.0,1.0,-100.00,NW,314,0.0,0.0,82,0.00,,,0.00,0.700000,,2013-01-17 17:02:00,
2013-01-17 08:12:00,5.0,1.0,-100.00,NW,314,0.0,0.0,82,0.00,,,0.00,0.700000,,2013-01-17 17:12:00,
2013-01-17 08:22:00,5.0,1.0,-100.00,NW,314,0.0,0.0,82,0.00,,,0.00,0.700000,,2013-01-17 17:22:00,
2013-01-17 08:33:00,5.0,1.0,-100.00,NW,314,0.0,0.0,82,0.00,,,0.00,0.700000,,2013-01-17 17:33:00,
2013-01-17 08:42:00,5.0,1.0,-100.00,NW,314,0.0,0.0,82,0.00,,,0.00,0.700000,,2013-01-17 17:42:00,
2013-01-17 08:43:00,5.0,1.0,-100.00,NW,315,0.0,0.0,82,0.00,,,0.00,0.700000,,2013-01-17 17:43:00,
2013-01-17 09:03:00,5.0,1.0,-100.00,NW,315,0.0,0.0,82,0.00,,,0.00,0.700000,,2013-01-17 18:03:00,
2013-01-17 09:12:00,5.0,1.0,-100.00,NW,315,0.0,0.0,82,0.00,,,0.00,0.700000,,2013-01-17 18:12:00,
2013-01-17 09:22:00,5.0,1.0,-100.00,NW,315,0.0,0.0,82,0.00,,,0.00,0.700000,,2013-01-17 18:22:00,
2013-01-17 09:33:00,5.0,1.0,-100.00,NW,315,0.0,0.0,82,0.00,,,0.00,0.700000,,2013-01-17 18:33:00,
2013-01-17 10:03:00,5.0,0.0,-100.00,NW,317,0.0,0.0,81,0.00,,,0.00,1.200000,,2013-01-17 19:03:00,
2013-01-17 10:12:00,5.0,0.0,-100.00,NW,317,0.0,0.0,81,0.00,,,0.00,1.200000,,2013-01-17 19:12:00,
2013-01-17 10:22:00,5.0,0.0,-100.00,NW,317,0.0,0.0,81,0.00,,,0.00,1.200000,,2013-01-17 19:22:00,
2013-01-17 10:32:00,5.0,0.0,-100.00,NW,317,0.0,0.0,81,0.00,,,0.00,1.200000,,2013-01-17 19:32:00,
2013-01-17 10:42:00,5.0,0.0,-100.00,NW,317,0.0,0.0,81,0.00,,,0.00,1.200000,,2013-01-17 19:42:00,
2013-01-17 10:43:00,5.0,0.0,-100.00,NW,321,0.0,0.0,81,0.00,,,0.00,12.600000,,2013-01-17 19:43:00,
2013-01-17 11:02:00,5.0,0.0,-100.00,NW,321,0.0,0.0,81,0.00,,,0.00,12.600000,,2013-01-17 20:02:00,
2013-01-17 11:12:00,5.0,0.0,-100.00,NW,321,0.0,0.0,81,0.00,,,0.00,12.600000,,2013-01-17 20:12:00,
2013-01-17 11:22:00,5.0,0.0,-100.00,NW,321,0.0,0.0,81,0.00,,,0.00,12.600000,,2013-01-17 20:22:00,
2013-01-17 11:33:00,5.0,0.0,-100.00,NW,321,0.0,0.0,81,0.00,,,0.00,12.600000,,2013-01-17 20:33:00,
2013-01-17 12:02:00,4.0,0.0,-100.00,NW,319,0.0,0.0,81,0.00,,,0.00,26.700001,,2013-01-17 21:02:00,
2013-01-17 12:12:00,4.0,0.0,-100.00,NW,319,0.0,0.0,81,0.00,,,0.00,26.700001,,2013-01-17 21:12:00,
2013-01-17 12:22:00,4.0,0.0,-100.00,NW,319,0.0,0.0,81,0.00,,,0.00,26.700001,,2013-01-17 21:22:00,
2013-01-17 12:33:00,4.0,0.0,-100.00,NW,319,0.0,0.0,81,0.00,,,0.00,26.700001,,2013-01-17 21:33:00,
2013-01-17 12:42:00,4.0,0.0,-100.00,NW,319,0.0,0.0,81,0.00,,,0.00,26.700001,,2013-01-17 21:42:00,
2013-01-17 13:03:00,4.0,-1.0,-100.00,NW,321,0.0,0.0,80,0.00,,,0.00,44.299999,,2013-01-17 22:03:00,
2013-01-17 13:12:00,4.0,-1.0,-100.00,NW,321,0.0,0.0,80,0.00,,,0.00,44.299999,,2013-01-17 22:12:00,
2013-01-17 13:22:00,4.0,-1.0,-100.00,NW,321,0.0,0.0,80,0.00,,,0.00,44.299999,,2013-01-17 22:22:00,
2013-01-17 13:32:00,4.0,-1.0,-100.00,NW,321,0.0,0.0,80,0.00,,,0.00,44.299999,,2013-01-17 22:32:00,
2013-01-17 13:42:00,4.0,-1.0,-100.00,NW,321,0.0,0.0,80,0.00,,,0.00,44.299999,,2013-01-17 22:42:00,
2013-01-17 14:02:00,4.0,-1.0,-100.00,NW,323,0.0,0.0,80,0.00,,,0.00,64.800003,,2013-01-17 23:02:00,
2013-01-17 14:12:00,4.0,-1.0,-100.00,NW,323,0.0,0.0,80,0.00,,,0.00,64.800003,,2013-01-17 23:12:00,
2013-01-17 14:22:00,4.0,-1.0,-100.00,NW,323,0.0,0.0,80,0.00,,,0.00,64.800003,,2013-01-17 23:22:00,
2013-01-17 14:32:00,4.0,-1.0,-100.00,NW,323,0.0,0.0,80,0.00,,,0.00,64.800003,,2013-01-17 23:32:00,
2013-01-17 14:42:00,4.0,-1.0,-100.00,NW,323,0.0,0.0,80,0.00,,,0.00,64.800003,,2013-01-17 23:42:00,
2013-01-17 15:02:00,4.0,-1.0,-100.00,NW,313,0.0,0.0,80,0.00,,,0.00,60.500000,,2013-01-18 00:02:00,
2013-01-17 15:12:00,4.0,-1.0,-100.00,NW,313,0.0,0.0,80,0.00,,,0.00,60.500000,,2013-01-18 00:12:00,
2013-01-17 15:23:00,4.0,-1.0,-100.00,NW,313,0.0,0.0,80,0.00,,,0.00,60.500000,,2013-01-18 00:23:00,
2013-01-17 15:32:00,4.0,-1.0,-100.00,NW,313,0.0,0.0,80,0.00,,,0.00,60.500000,,2013-01-18 00:32:00,
2013-01-17 15:42:00,4.0,-1.0,-100.00,NW,313,0.0,0.0,80,0.00,,,0.00,60.500000,,2013-01-18 00:42:00,
2013-01-17 16:02:00,3.0,-2.0,-100.00,NW,309,0.0,0.0,80,0.00,,,0.00,42.599998,,2013-01-18 01:02:00,
2013-01-17 16:12:00,3.0,-2.0,-100.00,NW,309,0.0,0.0,80,0.00,,,0.00,42.599998,,2013-01-18 01:12:00,
2013-01-17 16:22:00,3.0,-2.0,-100.00,NW,309,0.0,0.0,80,0.00,,,0.00,42.599998,,2013-01-18 01:22:00,
2013-01-17 16:32:00,3.0,-2.0,-100.00,NW,309,0.0,0.0,80,0.00,,,0.00,42.599998,,2013-01-18 01:32:00,
2013-01-17 16:42:00,3.0,-2.0,-100.00,NW,309,0.0,0.0,80,0.00,,,0.00,42.599998,,2013-01-18 01:42:00,
2013-01-17 17:02:00,3.0,-2.0,-100.00,NW,304,0.0,0.0,80,0.00,,,0.00,9.900000,,2013-01-18 02:02:00,
2013-01-17 17:12:00,3.0,-2.0,-100.00,NW,304,0.0,0.0,80,0.00,,,0.00,9.900000,,2013-01-18 02:12:00,
2013-01-17 17:22:00,3.0,-2.0,-100.00,NW,304,0.0,0.0,80,0.00,,,0.00,9.900000,,2013-01-18 02:22:00,
2013-01-17 17:32:00,3.0,-2.0,-100.00,NW,304,0.0,0.0,80,0.00,,,0.00,9.900000,,2013-01-18 02:32:00,
2013-01-17 17:42:00,3.0,-2.0,-100.00,NW,304,0.0,0.0,80,0.00,,,0.00,9.900000,,2013-01-18 02:42:00,
2013-01-17 18:02:00,3.0,-2.0,-100.00,NW,313,0.0,0.0,80,0.00,,,0.00,1.100000,,2013-01-18 03:02:00,
2013-01-17 18:12:00,3.0,-2.0,-100.00,NW,313,0.0,0.0,80,0.00,,,0.00,1.100000,,2013-01-18 03:12:00,
2013-01-17 18:22:00,3.0,-2.0,-100.00,NW,313,0.0,0.0,80,0.00,,,0.00,1.100000,,2013-01-18 03:22:00,
2013-01-17 18:33:00,3.0,-2.0,-100.00,NW,313,0.0,0.0,80,0.00,,,0.00,1.100000,,2013-01-18 03:33:00,
2013-01-17 18:42:00,3.0,-2.0,-100.00,NW,313,0.0,0.0,80,0.00,,,0.00,1.100000,,2013-01-18 03:42:00,
2013-01-17 19:02:00,3.0,-2.0,-100.00,NNW,330,0.0,0.0,80,0.00,,,-99.99,0.700000,,2013-01-18 04:02:00,
2013-01-17 19:12:00,3.0,-2.0,-100.00,NNW,330,0.0,0.0,80,0.00,,,-99.99,0.700000,,2013-01-18 04:12:00,
2013-01-17 19:22:00,3.0,-2.0,-100.00,NNW,330,0.0,0.0,80,0.00,,,-99.99,0.700000,,2013-01-18 04:22:00,
2013-01-17 19:32:00,3.0,-2.0,-100.00,NNW,330,0.0,0.0,80,0.00,,,-99.99,0.700000,,2013-01-18 04:32:00,
2013-01-17 19:42:00,3.0,-2.0,-100.00,NNW,330,0.0,0.0,80,0.00,,,-99.99,0.700000,,2013-01-18 04:42:00,
2013-01-17 20:03:00,3.0,-1.0,-100.00,NW,306,0.0,0.0,80,0.00,,,0.00,0.700000,,2013-01-18 05:03:00,
2013-01-17 20:12:00,3.0,-1.0,-100.00,NW,306,0.0,0.0,80,0.00,,,0.00,0.700000,,2013-01-18 05:12:00,
2013-01-17 20:22:00,3.0,-1.0,-100.00,NW,306,0.0,0.0,80,0.00,,,0.00,0.700000,,2013-01-18 05:22:00,
2013-01-17 20:32:00,3.0,-1.0,-100.00,NW,306,0.0,0.0,80,0.00,,,0.00,0.700000,,2013-01-18 05:32:00,
2013-01-17 20:42:00,3.0,-1.0,-100.00,NW,306,0.0,0.0,80,0.00,,,0.00,0.700000,,2013-01-18 05:42:00,
2013-01-17 21:02:00,3.0,-2.0,-100.00,West,267,0.0,0.0,80,0.00,,,0.00,0.700000,,2013-01-18 06:02:00,
2013-01-17 21:12:00,3.0,-2.0,-100.00,West,267,0.0,0.0,80,0.00,,,0.00,0.700000,,2013-01-18 06:12:00,
2013-01-17 21:22:00,3.0,-2.0,-100.00,West,267,0.0,0.0,80,0.00,,,0.00,0.700000,,2013-01-18 06:22:00,
2013-01-17 21:32:00,3.0,-2.0,-100.00,West,267,0.0,0.0,80,0.00,,,0.00,0.700000,,2013-01-18 06:32:00,
2013-01-17 21:42:00,3.0,-2.0,-100.00,West,267,0.0,0.0,80,0.00,,,0.00,0.700000,,2013-01-18 06:42:00,
2013-01-17 22:02:00,3.0,-2.0,-100.00,West,274,0.0,0.0,80,0.00,,,0.00,0.700000,,2013-01-18 07:02:00,
2013-01-17 22:12:00,3.0,-2.0,-100.00,West,274,0.0,0.0,80,0.00,,,0.00,0.700000,,2013-01-18 07:12:00,
2013-01-17 22:22:00,3.0,-2.0,-100.00,West,274,0.0,0.0,80,0.00,,,0.00,0.700000,,2013-01-18 07:22:00,
2013-01-17 22:32:00,3.0,-2.0,-100.00,West,274,0.0,0.0,80,0.00,,,0.00,0.700000,,2013-01-18 07:32:00,
2013-01-17 22:42:00,3.0,-2.0,-100.00,West,274,0.0,0.0,80,0.00,,,0.00,0.700000,,2013-01-18 07:42:00,
2013-01-17 23:02:00,2.0,-3.0,-100.00,WSW,251,0.0,0.0,79,0.00,,,0.00,0.700000,,2013-01-18 08:02:00,
2013-01-17 23:12:00,2.0,-3.0,-100.00,WSW,251,0.0,0.0,79,0.00,,,0.00,0.700000,,2013-01-18 08:12:00,
2013-01-17 23:22:00,2.0,-3.0,-100.00,WSW,251,0.0,0.0,79,0.00,,,0.00,0.700000,,2013-01-18 08:22:00,
2013-01-17 23:32:00,2.0,-3.0,-100.00,WSW,251,0.0,0.0,79,0.00,,,0.00,0.700000,,2013-01-18 08:32:00,
2013-01-17 23:42:00,2.0,-3.0,-100.00,WSW,251,0.0,0.0,79,0.00,,,0.00,0.700000,,2013-01-18 08:42:00,